Weather in Stara Chortoryia

Ukraine / Zhytomyr Region     50°00′41″N   27°41′51″E
temp.,
°C
wind,
m/s
gust,
m/s
humid.,
%
clouds,
%
prec.,
mm/h
press.,
hPa
HPBL,
m
12 may, wed
wed1200:00+11e38860 0.0 1017121
03:00+10e49961 0.0 1016191
06:00+9e5109862 0.0 1016344
09:00+11e79730 0.0 1016786
12:00+13e78588 0.0 10161349
15:00+13e786099 0.0 10151596
18:00+11e4774100 0.0 1015702
21:00+10e2677100 0.1 1013194
13 may, thu
thu1300:00+7e358874 0.0 101391
03:00+6ese3495100 0.0 101182
06:00+6ese369597 0.0 1010146
09:00+11se587037 0.0 1009736
12:00+10sse61077100 0.0 1009793
15:00+11se71381100 0.1 1008921
18:00+14sse7127959 0.0 10061099
21:00+11sse61390100 0.3 1007613
14 may, fri
fri1400:00+11sse6129396 0.1 1006728
03:00+10sse51094100 0.2 1006435
06:00+9sse3795100 1.4 1006242
09:00+11s349086 1.4 1006220
12:00+18s346395 0.3 10061229
15:00+16ssw5780100 3.6 1007678
18:00+12s3892100 2.5 1008242
21:00+12wnw3693100 2.7 1009147
15 may, sat
sat1500:00+11w3594100 0.0 1010175
03:00+9wsw369594 0.0 1011136
06:00+8w399440 0.0 1012208
09:00+13wsw12745 0.0 1012339
12:00+17sw566026 0.1 10121507
15:00+19wsw465681 0.9 10111729
18:00+18w136352 0.3 1011740
21:00+15e2270100 0.3 101217
16 may, sun
sun1600:00+14ese3470100 0.0 101278
03:00+13ese367157 0.0 1012126
06:00+10ese379098 0.0 1012138
09:00+15e5880100 0.1 1012383
12:00+19ese5768100 1.5 1011959
15:00+21ese685678 1.9 10102069
18:00+19se6973100 0.6 1010850
21:00+15ese41090100 1.1 1010245